Location: ??????
(38.5153°N, 23.0340°E)
Time: 14:24:16
(UTC+00:00)

Nadezhda 2 Rocket - Pass Details

Date: 13 December 2025
Orbit: 947 x 1011 km, 83.0° (Epoch: 17 January)

Event Time Altitude Azimuth Distance (km) Brightness Sun altitude
Rises 17:04:12 0° 352° (N) 3,631 7.5 -22.1°
Reaches altitude 10° 17:06:42 10° 352° (N) 2,678 6.8 -22.6°
Maximum altitude 17:12:49 84° 265° (W) 957 4.4 -23.7°
Drops below altitude 10° 17:18:54 10° 178° (S) 2,662 6.9 -24.9°
Sets 17:21:22 0° 177° (S) 3,608 7.6 -25.4°
